Location: Aldenham
(51.6667°N, 0.3500°W)
Time: 16:36:56
(UTC+00:00)

Vanguard 2 Rocket - Pass Details

Date: 21 February 2026
Orbit: 553 x 3286 km, 32.9° (Epoch: 11 March)

Event Time Altitude Azimuth Distance (km) Brightness Sun altitude
Rises 10:14:19 0° 209° (SSW) 7,105 11.8 22.6°
Reaches altitude 10° 10:20:20 10° 198° (SSW) 6,208 11.8 23.1°
Maximum altitude 10:34:36 26° 152° (SSE) 4,817 15.0 24.2°
Drops below altitude 10° 10:46:53 10° 105° (ESE) 5,350 11.5 25.0°
Sets 10:51:28 0° 94° (E) 5,988 11.4 25.3°
